Home > Weather > Flagstaff > Past weeks

Flag for U.S.A. Weather for the Past 2 Weeks in Flagstaff, Arizona, U.S.A.

Now
57 °F

Sunny.


Feels Like: 57 °F
Forecast: 23 / 62 °F
Wind: No wind

Location: Flagstaff Pulliam Airport

Current Time: Feb 10, 2016 at 1:54:42 PM

Latest Report: Feb 10, 2016 at 12:57 PM


Visibility: 10 mi

Pressure: 30.32 "Hg (23.61 "Hg at 2103m altitude)

Humidity: 13%

Dew point: 7 °F

Location of FlagstaffLocation

Historic Weather in Flagstaff — Graph

°F

Flagstaff Temperature Yesterday

Maximum temperature yesterday: 55 °F (at 2:57 PM)
Minimum temperature yesterday: 25 °F (at 5:57 AM)
Average temperature yesterday: 41 °F

High & Low Weather Summary for the Past Weeks

 TemperatureHumidityPressure
High57 °F (Jan 28, 1:57 PM)100% (Jan 31, 9:57 PM)30.60 "Hg (Jan 31, 9:57 PM)
Low-9 °F (Feb 3, 6:57 AM)10% (Jan 28, 1:57 PM)29.36 "Hg (Feb 1, 2:57 AM)
Average29 °F57%30.21 "Hg
* Reported Jan 26 12:57 PM — Feb 10 12:57 PM, Flagstaff, Weather by CustomWeather, © 2016

Note: Actual official high and low records may vary slightly from our data, if they occured in-between our weather recording intervals... More about our weather records

Advertising

Flagstaff Weather History for the Previous 24 Hours

 ConditionsComfort  
Time TempWeatherWind HumidityBarometerVisibility
12:57 PM
Wed, Feb 10
57 °FSunny.No wind13%30.32 "Hg10 mi
11:57 AM56 °FSunny.5 mph15%30.36 "Hg10 mi
10:57 AM53 °FSunny.5 mph18%30.39 "Hg10 mi
9:57 AM49 °FSunny.3 mph25%30.41 "Hg10 mi
8:57 AM33 °FSunny.No wind58%30.47 "Hg10 mi
7:57 AM22 °FSunny.No wind75%30.49 "Hg10 mi
6:57 AM20 °FClear.No wind78%30.46 "Hg10 mi
5:57 AM20 °FClear.No wind74%30.40 "Hg10 mi
4:57 AM22 °FClear.No wind68%30.35 "Hg10 mi
3:57 AM23 °FClear.No wind72%30.33 "Hg10 mi
2:57 AM24 °FClear.No wind65%30.32 "Hg10 mi
1:57 AM24 °FClear.3 mph60%30.33 "Hg10 mi
12:57 AM24 °FClear.No wind62%30.34 "Hg10 mi
11:57 PM
Tue, Feb 9
25 °FClear.5 mph58%30.35 "Hg10 mi
10:57 PM26 °FClear.No wind57%30.37 "Hg10 mi
9:57 PM27 °FClear.No wind61%30.37 "Hg10 mi
8:57 PM29 °FClear.5 mph58%30.37 "Hg10 mi
7:57 PM34 °FClear.No wind44%30.38 "Hg10 mi
6:57 PM38 °FClear.3 mph37%30.37 "Hg10 mi
5:57 PM48 °FSunny.8 mph28%30.34 "Hg10 mi
4:57 PM53 °FSunny.14 mph17%30.24 "Hg10 mi
3:57 PM54 °FSunny.9 mph20%30.24 "Hg10 mi
2:57 PM55 °FSunny.10 mph21%30.23 "Hg10 mi
1:57 PM53 °FSunny.12 mph23%30.24 "Hg10 mi
Weather by CustomWeather, © 2016

See weather overviewHow to use our weather pages